This demonstration page uses our WeatherBlox Daily Observations layout. Learn more.

Hourly Observations for August 28, 2019

Temp ( °F °C ) Dew Point ( °F °C ) Humidity (%) Winds ( mph kmh ) Pressure ( in mb ) Visibility ( mi km ) Precip ( " mm )
12:15 am 00:15 Clear 51 10.7 51 10.3 97 97 WNW 5 7 30.15 1021 10 16.09344 0 0
12:35 am 00:35 Clear 51 10.7 51 10.5 99 99 WNW 6 9 30.15 1021 10 16.09344 0 0
12:55 am 00:55 Clear 52 11 51 10.7 98 98 W 5 7 30.15 1021 10 16.09344 0 0
1:15 am 01:15 Clear 50 10.1 50 10.1 100 100 WSW 5 7 30.15 1021 10 16.09344 0 0
1:35 am 01:35 Clear 50 10.1 50 10 99 99 W 3 6 30.15 1021 10 16.09344 0 0
1:55 am 01:55 Clear 50 10.2 50 10.2 100 100 Calm 30.15 1021 10 16.09344 0 0
2:15 am 02:15 Clear 50 10.2 50 10.2 100 100 W 3 6 30.15 1021 10 16.09344 0 0
2:35 am 02:35 Clear 50 10 50 10 100 100 Calm 30.15 1021 10 16.09344 0 0
2:55 am 02:55 Clear 49 9.7 49 9.7 100 100 NW 5 7 30.15 1021 10 16.09344 0 0
3:15 am 03:15 Clear 49 9.7 49 9.7 100 100 WNW 3 6 30.15 1021 10 16.09344 0 0
3:35 am 03:35 Clear 49 9.5 49 9.5 100 100 Calm 30.15 1021 10 16.09344 0 0
3:55 am 03:55 Clear 49 9.6 49 9.6 100 100 Calm 30.15 1021 10 16.09344 0 0
4:15 am 04:15 Clear 49 9.7 49 9.7 100 100 W 3 6 30.15 1021 10 16.09344 0 0
4:35 am 04:35 Clear 49 9.4 49 9.4 100 100 Calm 30.15 1021 10 16.09344 0 0
4:55 am 04:55 Partly Cloudy 49 9.6 49 9.6 100 100 W 3 6 30.15 1021 10 16.09344 0 0
5:15 am 05:15 Partly Cloudy 49 9.3 49 9.3 100 100 Calm 30.15 1021 10 16.09344 0 0
5:35 am 05:35 Mostly Cloudy 49 9.7 49 9.7 100 100 WNW 3 6 30.15 1021 10 16.09344 0 0
5:55 am 05:55 Mostly Cloudy 50 9.9 50 9.9 100 100 Calm 30.15 1021 10 16.09344 0 0
6:15 am 06:15 Cloudy 50 10.2 50 10.2 100 100 Calm 30.15 1021 10 16.09344 0 0
6:35 am 06:35 Cloudy 51 10.5 51 10.5 100 100 Calm 30.15 1021 10 16.09344 0 0
6:55 am 06:55 Cloudy 52 11 52 11 100 100 Calm 30.15 1021 10 16.09344 0 0
7:15 am 07:15 Cloudy 53 11.5 53 11.5 100 100 Calm 30.12 1020 10 16.09344 0 0
7:35 am 07:35 Cloudy 53 11.7 53 11.6 99 99 Calm 30.12 1020 10 16.09344 0 0
7:55 am 07:55 Cloudy 54 12.1 54 12 99 99 Calm 30.12 1020 10 16.09344 0 0
8:15 am 08:15 Mostly Cloudy 55 12.6 54 12.3 98 98 Calm 30.12 1020 10 16.09344 0 0
8:35 am 08:35 Mostly Cloudy 57 13.8 56 13.2 96 96 Calm 30.12 1020 10 16.09344 0 0
8:55 am 08:55 Cloudy 58 14.5 56 13.6 94 94 Calm 30.09 1019 10 16.09344 0 0
9:15 am 09:15 Partly Cloudy 60 15.6 57 14 90 90 Calm 30.09 1019 10 16.09344 0 0
9:35 am 09:35 Mostly Cloudy 62 16.5 57 13.7 84 84 Calm 30.06 1018 10 16.09344 0 0
9:55 am 09:55 Cloudy 63 17.1 58 14.5 85 85 SSE 3 6 30.06 1018 10 16.09344 0 0
10:15 am 10:15 Mostly Cloudy 65 18.3 58 14.2 77 77 SSE 3 6 30.03 1017 10 16.09344 0 0
10:35 am 10:35 Partly Cloudy 68 20 59 15 73 73 S 6 9 30.03 1017 10 16.09344 0 0
10:55 am 10:55 Partly Cloudy 70 20.9 59 14.8 68 68 SSW 8 13 30 1016 10 16.09344 0 0
11:15 am 11:15 Sunny 71 21.7 60 15.5 68 68 SSW 8 13 30 1016 10 16.09344 0 0
11:35 am 11:35 Sunny 72 22 61 16.1 69 69 SW 8 13 30 1016 10 16.09344 0 0
11:55 am 11:55 Sunny 72 22.4 62 16.7 70 70 SSW 12 19 30 1016 10 16.09344 0 0
12:15 pm 12:15 Sunny 73 22.6 63 17.2 72 72 SW 10 17 30 1016 10 16.09344 0 0
12:35 pm 12:35 Sunny 73 23 63 17.2 70 70 SSW 7 11 29.97 1015 10 16.09344 0 0
12:55 pm 12:55 Sunny 74 23.4 64 17.8 71 71 S 7 11 29.97 1015 10 16.09344 0 0
1:15 pm 13:15 Sunny 75 23.9 65 18.2 71 71 S 8 13 29.97 1015 10 16.09344 0 0
1:35 pm 13:35 Sunny 76 24.6 66 18.7 70 70 S 9 15 29.91 1013 10 16.09344 0 0
1:55 pm 13:55 Sunny 77 25 67 19.2 70 70 S 9 15 29.91 1013 10 16.09344 0 0
2:15 pm 14:15 Partly Cloudy 78 25.5 66 19.1 68 68 SW 6 9 29.91 1013 10 16.09344 0 0
2:35 pm 14:35 Partly Cloudy 79 26 68 20 70 70 S 7 11 29.91 1013 10 16.09344 0 0
2:55 pm 14:55 Partly Cloudy 80 26.5 68 19.8 67 67 SW 13 20 29.91 1013 10 16.09344 0 0
3:15 pm 15:15 Partly Cloudy 81 27.1 69 20.7 68 68 S 9 15 29.91 1013 10 16.09344 0 0
3:35 pm 15:35 Partly Cloudy 81 27 69 20.6 68 68 S 8 13 29.91 1013 10 16.09344 0 0
3:55 pm 15:55 Partly Cloudy 82 27.8 70 21.1 67 67 S 7 11 29.85 1011 10 16.09344 0 0
4:15 pm 16:15 Partly Cloudy 82 27.7 69 20.6 65 65 S 10 17 29.85 1011 10 16.09344 0 0
4:35 pm 16:35 Partly Cloudy 83 28.2 69 20.5 63 63 SSW 10 17 29.85 1011 10 16.09344 0 0
4:55 pm 16:55 Mostly Cloudy 82 27.9 69 20.7 65 65 S 10 17 29.85 1011 10 16.09344 0 0
5:15 pm 17:15 Partly Cloudy 82 28 69 20.3 63 63 S 14 22 29.83 1010 10 16.09344 0 0
5:35 pm 17:35 Sunny 83 28.1 69 20.3 63 63 SSW 9 15 29.83 1010 10 16.09344 0 0
5:55 pm 17:55 Sunny 83 28.4 68 20.2 61 61 SSW 7 11 29.83 1010 10 16.09344 0 0
6:15 pm 18:15 Mostly Cloudy 82 27.9 69 20.5 64 64 S 8 13 29.83 1010 10 16.09344 0 0
6:35 pm 18:35 Partly Cloudy 82 27.9 69 20.8 65 65 SSE 8 13 29.83 1010 10 16.09344 0 0
6:55 pm 18:55 Mostly Cloudy 81 27.3 70 20.9 68 68 SE 6 9 29.8 1009 10 16.09344 0 0
7:15 pm 19:15 Cloudy 81 27.3 70 21.3 70 70 SE 7 11 29.8 1009 10 16.09344 0 0
7:35 pm 19:35 Cloudy 80 26.5 70 20.9 71 71 SE 7 11 29.8 1009 10 16.09344 0 0
7:55 pm 19:55 Cloudy 79 26 69 20.8 73 73 ESE 6 9 29.83 1010 10 16.09344 0 0
8:15 pm 20:15 Cloudy 78 25.6 69 20.6 74 74 ESE 7 11 29.83 1010 10 16.09344 0 0
8:35 pm 20:35 Cloudy 77 25.1 69 20.6 76 76 SE 7 11 29.83 1010 10 16.09344 0 0
8:55 pm 20:55 Mostly Cloudy 75 24 69 20.6 81 81 SE 8 13 29.83 1010 10 16.09344 0 0
9:15 pm 21:15 Partly Cloudy 75 23.7 69 20.5 82 82 SE 7 11 29.83 1010 10 16.09344 0 0
9:35 pm 21:35 Partly Cloudy 73 22.7 69 20.5 87 87 SSE 7 11 29.85 1011 10 16.09344 0 0
9:55 pm 21:55 Partly Cloudy 71 21.8 68 20.1 90 90 SSE 8 13 29.85 1011 10 16.09344 0 0
10:15 pm 22:15 Partly Cloudy 71 21.6 68 19.9 90 90 SSE 7 11 29.88 1012 10 16.09344 0 0
10:35 pm 22:35 Partly Cloudy 71 21.5 67 19.5 88 88 SSE 7 11 29.88 1012 10 16.09344 0 0
10:55 pm 22:55 Clear 71 21.4 67 19.2 87 87 SSE 7 11 29.88 1012 10 16.09344 0 0
11:15 pm 23:15 Clear 69 20.8 66 19 90 90 SSE 8 13 29.85 1011 10 16.09344 0 0
11:35 pm 23:35 Clear 69 20.7 66 18.9 89 89 S 5 7 29.88 1012 10 16.09344 0 0
11:55 pm 23:55 Clear 69 20.7 66 18.9 89 89 S 5 7 29.88 1012 10 16.09344 0 0

Powered by AerisWeather